Глуша

Беларусь     53°05′14″N   28°51′21″E
темп.,
°C
ветер,
м/с
пор.,
м/с
влажн.,
%
обл.,
%
осадки,
мм/ч
давл.,
гПа
погр.,
м
11 мая, вт
вт1100:00+8юв36715 0.0 102599
03:00+7вюв23725 0.0 102555
06:00+7вюв237828 0.0 102547
09:00+13вюв3457100 0.0 1025401
12:00+17в45425 0.0 10231146
15:00+19в453720 0.0 10221224
18:00+19в35515 0.0 10211022
21:00+13в36815 0.0 102085
12 мая, ср
ср1200:00+12в310924 0.0 1020198
03:00+11вюв411963 0.0 1020323
06:00+9вюв411920 0.0 1021461
09:00+12вюв58620 0.0 1021832
12:00+15вюв68511 0.0 10201408
15:00+17вюв57447 0.0 10181847
18:00+16в565399 0.0 10171669
21:00+11в247794 0.0 101563
13 мая, чт
чт1300:00+9юв1281100 0.0 101422
03:00+9вюв3796100 1.1 1012354
06:00+8ююв1397100 3.1 1011160
09:00+8ююв1294100 4.4 1011145
12:00+10юв4688100 0.2 1010613
15:00+12ююв4679100 1.1 1010755
18:00+12юв4981100 1.6 1009425
21:00+11юв51186100 2.0 1009479
14 мая, пт
пт1400:00+9юв51393100 1.2 1009552
03:00+10юв51388100 1.4 1008564
06:00+10юв51395100 0.2 1008522
09:00+12юв51095100 0.4 1007720
12:00+14ююв488599 0.2 1008694
15:00+20ююв355219 0.2 10061680
18:00+17юв367661 1.1 1006382
21:00+13ююв369298 2.4 1006115
15 мая, сб
сб1500:00+12юз119783 0.8 100612
03:00+12ю2597100 0.8 1006153
06:00+10ююз269610 0.0 1007153
09:00+13ююз367975 0.0 1008504
12:00+17ююз465892 0.0 10081549
15:00+17юз5661100 0.1 10081383
18:00+15юз467990 0.4 1009681
21:00+12юз379183 0.6 1009231